Theta_e
321 328 330 335 341 343 346 344 345 345 344 345 343 345 346 345 346 347 344 344 340 350 351 347 330 328 327 333 336 339 348 347 346 345 340 337 337 336 334 334 331 337 340 343 342 335 335 333 332
326 331 330 332 337 338 335 340 343 340 339 341 342 344 345 346 346 346 345 342 343 351 352 349 331 330 328 329 331 336 342 347 346 344 340 337 337 338 334 334 332 337 342 343 342 339 334 332 333
324 325 329 332 337 333 332 334 329 331 337 338 338 338 339 346 345 344 344 345 345 351 352 350 333 329 329 329 329 331 337 342 346 344 342 340 340 337 335 331 333 338 341 341 339 336 334 332 329
326 326 327 335 334 333 333 326 326 330 338 336 337 338 338 336 342 344 347 347 346 349 351 349 337 330 327 326 327 329 329 334 340 344 344 342 337 333 331 332 334 337 339 338 335 332 329 328 326
319 325 331 331 330 328 327 325 323 333 339 340 339 338 338 340 347 350 350 349 347 349 351 351 337 331 329 327 325 326 328 329 330 332 334 334 333 334 333 334 335 337 338 338 337 336 334 332 329
323 324 329 327 323 322 320 319 330 336 340 341 339 337 340 345 350 351 350 350 349 349 351 352 346 335 330 329 327 327 327 328 329 330 331 332 333 334 334 334 335 336 337 338 338 337 335 334 332
324 326 325 323 321 320 320 319 321 339 341 341 335 336 338 346 350 349 349 349 348 348 350 351 351 349 336 330 329 329 330 329 328 329 330 330 331 333 334 335 336 336 337 338 337 337 336 334 331
321 322 321 319 319 320 318 319 323 337 339 336 334 336 341 344 347 348 348 347 346 347 348 350 353 350 348 346 335 330 330 332 333 333 332 331 332 332 334 335 336 335 334 333 331 329 328 329 329
313 318 319 318 318 319 318 321 321 321 333 338 338 341 341 345 347 346 345 344 345 346 347 347 348 349 349 349 348 341 333 331 333 336 336 337 342 342 342 340 339 331 330 329 329 330 331 330 329
316 318 318 316 317 319 325 343 341 333 329 338 341 343 343 344 346 345 344 343 343 344 345 345 347 347 348 348 348 348 348 345 343 343 345 345 344 345 342 342 340 336 334 335 335 336 336 335 336
314 320 317 318 316 315 317 343 340 344 342 344 343 343 343 344 346 346 346 346 345 343 343 344 345 346 346 346 347 349 348 348 348 348 347 345 346 345 343 342 342 341 341 341 340 341 341 340 339
317 317 316 317 329 327 335 342 341 342 344 342 341 343 344 346 346 343 336 340 342 341 343 344 343 345 345 345 346 345 346 344 343 343 343 343 345 344 343 342 340 340 339 339 340 339 339 340 341
318 318 316 323 341 341 339 340 343 343 345 346 345 344 345 347 349 349 349 349 348 346 346 344 344 344 344 345 344 345 343 343 341 340 341 341 340 340 339 340 339 338 338 337 337 337 338 338 339
317 318 321 330 340 340 340 341 342 349 351 353 353 353 351 350 347 345 345 344 344 343 341 340 344 344 345 344 343 340 337 337 339 338 339 339 339 339 338 337 337 337 337 336 336 335 336 337 338
317 323 338 331 327 341 334 345 347 345 352 354 353 351 349 348 345 344 343 342 341 341 343 343 341 340 340 340 340 338 336 334 335 338 339 338 337 335 334 333 333 332 335 338 339 339 340 340 341
319 319 327 334 334 338 342 349 344 346 352 351 352 349 347 345 342 340 339 339 340 337 338 340 339 343 341 339 339 338 336 337 338 336 335 334 335 335 335 334 333 329 333 332 335 337 339 341 341
321 322 331 338 335 337 343 348 344 347 348 348 349 349 347 343 337 335 334 335 335 335 332 335 337 341 344 340 338 337 336 336 335 336 336 337 335 335 336 335 333 331 331 333 331 332 336 338 339
324 330 337 339 337 342 345 346 348 348 343 343 343 343 340 335 333 330 331 333 334 336 336 335 335 337 341 339 339 339 338 338 336 336 335 333 334 334 333 331 329 330 331 331 330 332 331 335 337
322 337 339 336 335 340 342 349 346 345 342 338 336 335 332 330 328 328 329 330 331 331 332 332 330 328 332 334 338 340 339 339 338 337 335 333 333 333 330 331 330 331 332 330 330 328 331 332 334
337 338 337 335 336 338 340 343 343 343 345 342 337 333 331 329 329 328 328 328 328 329 330 331 330 329 328 327 333 337 335 337 337 337 337 336 336 335 331 331 332 331 332 331 330 330 333 333 333
326 330 335 335 336 336 338 343 345 343 342 341 341 337 334 331 330 330 329 329 327 326 325 325 325 322 322 322 327 328 329 326 326 326 329 334 336 336 335 334 333 332 333 331 330 331 331 332 335
325 321 328 337 338 339 330 339 345 344 346 344 342 338 336 334 331 330 329 329 328 327 326 325 325 324 320 318 324 326 325 325 324 325 326 326 332 334 334 333 332 332 332 331 332 332 333 334 334
323 326 333 332 334 335 334 336 342 343 348 344 343 339 336 333 330 328 326 326 326 326 327 326 324 324 325 326 321 323 324 324 325 326 328 328 328 333 332 331 330 329 328 329 328 329 331 334 335
326 327 328 329 333 338 337 337 342 344 343 344 339 338 335 332 330 328 326 323 322 319 319 324 322 319 319 319 320 322 324 324 324 324 325 325 327 329 332 330 330 327 327 326 326 327 329 332 334
326 329 328 331 333 336 335 341 344 339 338 340 339 338 334 332 329 326 324 322 318 317 317 318 321 322 321 321 321 320 320 321 321 321 321 322 322 327 328 329 329 327 326 325 326 327 328 330 333
328 331 328 329 330 333 337 344 342 336 333 333 339 336 333 328 326 325 323 319 317 317 317 318 320 320 319 319 318 317 317 317 317 318 319 319 320 321 325 327 328 327 325 325 326 326 326 327 329
327 330 326 332 330 335 337 339 335 332 333 337 336 333 329 327 326 321 318 316 317 316 316 318 320 319 319 318 317 317 316 317 317 318 319 319 320 320 321 324 327 327 326 323 323 324 324 324 325
327 324 330 329 329 327 333 340 341 336 333 331 331 328 324 320 318 318 317 316 315 314 315 318 319 319 318 317 317 316 316 316 316 316 315 314 313 313 317 320 321 322 320 320 322 323 323 322 321
325 326 327 328 328 327 327 337 331 332 329 329 326 322 319 318 317 317 315 315 314 315 316 319 319 318 317 317 316 315 314 314 313 311 308 307 308 308 310 312 313 314 314 316 316 317 318 314 314
325 326 326 328 330 329 330 334 327 327 325 324 322 320 318 317 316 316 315 315 316 315 318 319 319 317 316 315 314 314 311 308 307 306 305 305 305 306 307 308 309 310 310 310 310 307 307 308 302
Wind_Speed
8 6 3 1 3 1 2 2 3 5 1 1 3 2 1 1 3 6 3 13 11 26 25 25 25 26 27 27 24 22 28 31 30 29 28 28 27 24 24 23 24 22 20 19 17 16 17 17 16
11 6 2 1 3 4 2 2 7 7 1 1 3 2 3 1 1 2 1 12 15 25 23 23 25 25 25 26 25 23 23 28 29 27 27 27 26 23 23 22 23 20 18 17 16 16 16 16 16
5 2 2 1 1 4 5 4 10 13 7 6 1 1 1 2 2 1 1 13 19 23 22 21 25 23 24 24 24 23 22 22 25 25 25 25 23 22 22 21 21 19 17 17 17 17 17 17 17
2 2 2 3 5 3 4 11 10 6 1 5 2 2 0 2 0 1 10 12 19 21 20 23 24 22 22 22 23 23 22 22 22 23 24 23 22 21 21 21 21 20 18 17 17 16 15 15 15
2 0 1 3 4 5 6 9 9 2 1 5 2 1 1 2 2 6 10 9 11 15 16 19 24 22 21 21 21 21 22 21 21 21 22 22 21 21 21 21 21 20 19 18 17 17 16 16 15
2 1 1 2 5 5 6 8 4 2 1 2 1 1 1 3 7 10 9 9 9 9 11 13 20 22 20 19 19 19 19 19 19 19 20 20 21 21 21 21 21 20 19 18 17 17 17 17 16
1 2 1 2 6 6 9 17 8 3 1 2 1 1 3 8 8 10 10 11 10 9 11 9 11 14 18 19 20 20 20 19 18 19 19 20 21 21 21 21 20 20 19 19 18 18 18 17 17
2 2 2 2 4 8 13 11 5 6 5 3 2 6 8 6 10 12 10 10 10 8 8 8 8 11 11 11 17 18 20 19 19 19 19 19 19 19 20 20 20 20 20 20 20 20 20 19 19
2 2 2 1 2 8 12 13 9 8 4 0 8 7 6 17 14 12 12 12 10 7 6 7 8 10 12 12 11 16 18 18 18 18 19 18 15 16 17 18 20 20 20 20 20 20 20 19 20
2 1 2 1 3 5 8 11 8 7 6 9 10 12 9 13 12 11 10 6 9 10 10 9 10 10 10 10 11 12 13 14 15 15 14 14 14 13 14 15 17 17 18 20 20 20 20 19 18
3 2 2 3 5 2 3 13 14 12 6 12 20 1 7 7 5 9 9 10 10 6 6 9 11 10 10 9 8 7 10 12 12 13 13 12 12 12 13 13 13 14 16 18 18 19 19 19 19
3 2 3 6 9 4 5 6 18 19 10 13 13 9 10 10 11 19 19 22 20 17 11 10 13 13 13 12 7 5 6 8 10 11 12 11 10 11 10 12 14 16 16 18 19 20 20 21 21
3 2 1 8 15 17 18 16 21 20 15 17 19 18 18 17 21 23 19 19 16 17 13 9 9 14 15 9 7 4 7 11 13 12 12 10 11 12 12 12 14 17 20 21 22 23 23 23 22
3 5 3 8 9 11 24 20 8 15 13 18 21 21 20 22 24 27 28 27 26 22 21 15 2 6 6 9 12 15 14 13 9 8 4 2 2 4 5 5 9 14 15 19 23 24 24 24 22
2 8 11 7 1 5 7 22 15 10 12 18 19 18 20 22 27 26 21 22 24 24 21 24 19 12 5 6 13 17 17 18 15 9 5 3 2 3 5 9 16 13 13 18 17 21 22 24 22
3 5 4 7 2 6 3 7 10 9 12 17 17 16 19 20 22 25 24 23 20 19 28 28 32 12 8 2 6 12 16 10 4 8 16 20 23 20 16 24 28 33 23 21 19 18 21 21 21
3 6 8 5 11 1 3 10 7 10 11 16 15 13 16 16 19 25 25 24 26 28 33 34 34 26 22 9 3 6 11 14 13 12 18 20 19 15 17 25 35 31 28 21 25 24 18 19 17
2 6 6 6 8 18 18 14 10 10 12 14 13 12 14 17 17 22 20 20 21 24 28 28 27 26 21 17 9 2 5 10 13 14 22 29 26 23 26 26 27 26 26 24 21 18 21 24 19
5 10 15 9 4 11 13 13 9 9 11 13 13 14 14 14 17 20 18 18 19 21 23 23 25 24 20 15 9 5 4 7 13 16 18 19 25 24 24 20 23 18 23 20 24 22 22 25 22
13 17 8 6 8 9 13 11 9 7 7 10 8 9 9 9 11 16 17 15 16 15 15 17 19 19 19 16 11 7 10 11 15 16 15 15 17 18 17 18 19 21 22 20 21 23 20 19 18
9 6 9 5 8 10 8 8 5 6 8 5 3 8 8 7 9 10 14 15 15 16 15 16 16 18 17 18 16 15 13 16 17 23 24 20 19 17 15 15 17 21 21 20 23 21 20 16 17
6 4 11 14 8 4 2 4 3 5 8 6 4 7 5 4 7 8 10 12 10 11 10 13 14 16 16 17 14 14 16 19 21 23 24 25 19 16 15 16 18 20 19 19 18 16 20 19 22
2 5 11 11 7 4 3 3 5 1 7 5 4 6 7 7 8 10 13 12 12 11 11 12 14 16 16 15 20 17 18 20 23 23 24 25 23 17 18 15 14 13 13 15 17 18 20 21 23
10 9 11 3 2 3 3 3 4 1 1 2 2 4 6 8 9 11 12 16 18 17 16 15 20 23 23 21 21 19 18 21 25 27 25 23 24 22 17 15 15 15 15 17 18 18 21 23 24
4 3 2 3 3 2 1 4 3 1 3 5 5 5 7 7 9 10 13 17 16 17 19 17 17 18 19 19 19 19 19 19 20 23 26 28 25 24 23 18 14 13 15 15 16 15 16 16 19
5 2 1 1 2 2 1 2 3 4 5 3 3 4 5 8 9 9 14 16 18 19 17 16 15 15 16 17 19 18 20 20 22 23 25 26 25 24 22 21 18 12 11 11 10 11 11 8 6
4 2 2 4 1 3 0 1 2 5 6 6 5 6 9 10 9 12 17 19 20 19 19 18 17 18 19 18 17 18 20 23 25 26 26 25 28 26 24 21 16 12 9 8 7 5 6 5 3
3 5 0 1 2 3 3 3 3 8 6 4 6 7 8 8 8 11 16 18 17 17 14 12 12 13 15 18 20 22 23 25 25 24 26 27 26 23 21 16 10 8 9 9 7 5 2 1 3
3 2 5 2 2 3 4 1 5 7 5 5 7 6 6 8 10 11 15 16 16 15 12 9 11 15 19 20 20 22 25 25 23 22 23 22 20 20 19 18 16 16 15 12 10 7 6 10 9
7 4 2 3 1 1 2 2 4 4 6 6 6 7 9 10 10 11 13 14 17 14 10 13 17 17 17 17 18 19 19 20 19 21 22 22 23 23 23 24 25 24 20 16 12 14 13 17 24
Wind_Direction
132 131 123 214 251 284 302 265 280 270 241 208 147 177 285 30 252 325 36 175 156 160 166 168 170 169 168 170 170 167 172 174 177 175 175 177 178 181 181 178 176 176 175 174 170 169 171 172 171
134 125 68 69 311 347 2 285 263 287 58 27 180 243 247 305 272 337 49 163 158 163 165 168 172 171 168 169 172 171 171 177 180 178 178 180 182 185 185 184 182 182 184 185 184 183 183 185 186
118 114 288 30 207 331 319 258 316 303 303 264 177 308 359 22 63 2 103 154 153 163 167 169 173 173 169 168 170 173 175 178 183 182 182 183 186 189 188 189 189 189 192 194 195 196 196 198 201
150 167 125 274 306 286 257 332 334 308 359 203 138 334 200 1 341 35 146 149 155 166 168 171 176 176 173 169 167 172 177 181 181 184 185 187 192 193 193 194 195 198 199 201 204 206 207 210 211
47 89 290 308 298 272 274 300 326 281 193 188 167 7 269 64 33 113 126 130 151 158 165 172 179 182 179 175 171 173 178 181 185 188 190 193 196 198 198 201 201 205 210 211 213 214 216 219 221
131 312 255 317 301 291 301 335 298 207 167 104 112 216 47 46 52 85 102 107 126 150 163 175 187 188 187 185 181 180 182 185 188 191 194 195 198 202 203 206 208 213 217 222 225 230 231 232 233
247 215 278 294 313 351 358 342 7 337 28 25 106 61 52 58 86 105 113 121 126 140 161 177 193 201 200 197 195 193 193 192 196 199 202 203 207 209 209 211 214 219 223 227 231 235 240 242 243
119 248 220 218 350 11 349 5 12 37 3 338 331 25 60 117 119 118 114 112 125 139 166 191 196 205 215 222 220 211 207 205 206 209 213 214 217 219 221 224 228 228 229 232 234 236 239 242 245
161 248 300 348 335 348 349 8 17 322 281 342 53 34 129 139 132 128 135 145 149 158 177 197 209 212 217 224 233 234 232 224 222 221 224 226 224 229 230 232 232 237 239 240 243 246 249 251 253
203 305 297 298 282 330 56 34 339 343 345 64 49 59 122 134 139 162 166 161 177 180 188 204 215 221 227 237 242 242 243 239 237 235 235 236 241 245 244 250 259 260 259 259 258 258 259 260 253
148 263 7 5 323 324 90 60 33 3 22 336 305 321 124 113 122 44 36 12 351 324 257 237 224 221 220 233 246 270 277 286 296 297 293 290 288 293 290 289 291 279 274 264 266 261 254 249 249
244 298 247 352 7 88 75 83 52 43 27 27 59 105 90 62 40 36 40 25 17 5 331 278 245 233 227 224 243 249 254 290 313 302 297 294 294 298 305 298 290 287 281 273 266 262 258 253 250
203 298 12 67 90 91 82 68 63 46 54 66 74 70 67 56 43 38 43 36 26 10 338 299 260 243 240 226 215 215 246 273 285 290 287 287 289 294 304 303 299 293 289 281 275 269 266 262 255
156 23 56 90 115 95 71 53 64 41 68 69 68 65 60 61 58 50 43 38 36 26 22 24 16 272 255 229 214 229 228 252 260 269 264 306 315 304 305 311 309 294 283 281 283 277 271 266 260
148 120 116 35 333 157 335 41 43 44 73 76 72 69 64 59 61 56 49 46 38 37 40 52 56 30 37 261 251 245 249 242 230 212 239 270 237 251 262 288 285 280 284 281 270 273 271 268 263
182 157 163 35 352 26 141 77 34 41 81 76 72 69 71 62 62 63 51 48 47 44 51 54 57 10 29 251 231 224 226 231 198 254 268 264 252 236 244 274 263 269 272 281 274 274 273 264 267
55 114 99 104 15 218 112 125 51 35 66 69 70 74 79 76 60 61 56 51 53 56 57 56 58 50 42 44 53 196 213 226 227 244 250 249 236 231 254 253 269 279 265 281 281 270 270 275 272
69 120 78 85 47 97 99 104 92 69 67 68 66 59 63 74 65 65 67 64 57 59 62 60 56 55 56 61 74 132 222 230 223 251 267 277 256 278 282 273 277 274 295 297 281 266 266 267 268
107 118 114 118 138 69 94 99 83 80 78 69 57 54 51 46 65 70 67 69 65 63 63 61 58 54 57 58 48 21 315 287 289 301 305 281 275 277 280 269 284 289 284 283 268 278 261 257 260
126 123 112 99 95 106 121 102 86 82 88 85 89 87 80 73 63 64 71 68 73 70 66 68 63 52 46 41 28 6 342 330 322 327 326 319 314 303 271 265 265 283 270 265 270 271 247 245 245
161 169 174 150 118 94 128 117 123 73 103 113 174 91 78 73 77 78 74 68 65 60 52 57 53 52 40 31 17 5 357 348 340 334 328 328 325 322 304 296 284 284 278 269 258 244 248 271 283
171 126 161 145 170 157 282 159 128 111 126 97 99 120 104 109 95 83 78 70 61 57 54 50 47 43 37 31 17 5 350 339 331 328 325 324 319 316 315 315 306 294 279 270 259 247 242 250 264
86 74 149 136 101 152 61 272 111 189 154 101 143 134 121 95 67 59 51 50 47 39 25 30 32 30 19 15 11 1 346 333 326 327 328 322 320 313 315 313 311 298 290 286 282 280 277 272 255
137 92 93 107 138 169 33 295 138 176 338 281 306 104 86 71 52 45 41 41 36 28 23 19 21 20 19 13 7 360 347 336 330 327 327 327 322 316 314 316 315 317 317 312 302 290 283 271 264
179 160 166 171 205 47 345 227 29 287 313 287 324 33 41 35 34 31 30 28 21 21 25 21 17 15 13 9 1 352 344 335 330 326 322 321 321 319 316 318 310 309 318 312 308 299 287 270 255
47 2 32 268 270 95 154 234 76 342 338 284 77 79 50 36 31 25 25 16 13 16 13 12 16 14 9 3 356 351 345 337 328 321 319 314 316 314 314 314 313 303 314 317 316 316 306 296 254
137 79 54 103 45 233 34 195 207 27 30 64 67 52 34 29 24 14 13 10 5 357 352 6 6 5 2 359 352 346 341 336 330 327 326 319 320 318 317 315 312 306 309 317 323 319 336 349 348
43 123 224 66 283 297 186 256 272 345 356 33 40 49 50 29 12 11 5 0 350 345 353 2 7 3 355 355 354 350 347 343 340 341 338 336 337 337 343 346 345 335 337 340 325 322 345 19 76
100 93 67 84 331 302 302 138 352 325 2 66 72 52 22 8 8 7 357 348 345 349 355 6 4 359 357 356 356 354 350 354 356 354 358 2 5 15 19 22 22 17 9 360 3 24 60 65 79
61 51 37 299 211 74 318 94 6 61 62 54 42 15 6 359 356 354 352 352 356 354 5 6 4 4 1 359 358 0 2 2 11 11 20 25 29 34 37 39 41 39 32 29 41 56 72 91 57